User: anonymous   Login
Location: Newark
(0.5300°S, 127.4800°E)
Time: 17:33:37
(UTC+00:00)
Language:

Transit 4A - Orbit

View from above orbital plane
View from above orbital plane
View from above satellite
View from above satellite

Ground track
Ground track

The orbit data is extracted from the following two-line orbital elements,

1   116U 61015A   19291.94133814 -.00000067  00000-0  79695-5 0  9991
2   116  66.8091  81.0460 0076273 183.9166 176.1326 13.91759913958554
Epoch (UTC): 18 October 2019 22:35:31
Eccentricity: 0.0076273
inclination: 66.8091°
perigee height: 867 km
apogee height: 978 km
right ascension of ascending node: 81.0460°
argument of perigee: 183.9166°
revolutions per day: 13.91759913
mean anomaly at epoch: 176.1326°
orbit number at epoch: 95855

The dashed part of the orbit path shows where the satellite is in the earth's shadow,  

DLR